FW5485 Weather Reports


time (UTC)temp
C
wind
direction
speed
KPH
gust
KPH
rain 1hr
cm
rain 24hr
cm
rain mn
cm
humidity
%
barometer
mb
20260507221016 13 0.0 6.4 0.00 0.46 0.46 81 1010.1
20260507220016 13 0.0 3.2 0.00 0.46 0.46 81 1010.2
20260507215016 13 0.0 3.2 0.00 0.46 0.46 83 1010.2
20260507214016 13 0.0 3.2 0.00 0.46 0.46 84 1010.1
20260507213036 13 0.0 1.6 0.00 0.46 0.46 84 1010.1
20260507212036 12 0 1.6 3.2 0.00 0.46 0.46 81 1010.2
20260507211036 13 0 1.6 3.2 0.00 0.46 0.46 83 1010.1
20260507210016 12 0.0 1.6 0.00 0.46 0.46 85 1010.2
20260507205016 12 0.0 3.2 0.00 0.46 0.46 85 1010.2
20260507204016 12 0.0 3.2 0.03 0.46 0.46 88 1009.8
20260507203016 12 0.0 3.2 0.03 0.46 0.46 86 1010.2
20260507202016 12 0 1.6 3.2 0.05 0.46 0.46 87 1010.3
20260507201016 12 0.0 3.2 0.05 0.46 0.46 89 1010.4
20260507200016 12 0 1.6 3.2 0.05 0.46 0.46 85 1010.9
20260507195016 12 0 1.6 3.2 0.05 0.46 0.46 87 1010.6
20260507194036 12 0 1.6 3.2 0.08 0.43 0.43 89 1010.8
20260507193015 11 0.0 1.6 0.10 0.43 0.43 91 1011.1
20260507192016 11 0.0 1.6 0.08 0.41 0.41 88 1011.3
20260507191015 11 0.0 1.6 0.08 0.41 0.41 90 1011.2
20260507190016 11 0.0 3.2 0.08 0.41 0.41 90 1011.3
20260507185016 11 0.0 1.6 0.08 0.41 0.41 90 1011.3
20260507184036 11 0.0 1.6 0.13 0.36 0.36 89 1011.3
20260507183016 11 0.0 3.2 0.15 0.33 0.33 88 1011.4
20260507182036 11 0 1.6 4.8 0.15 0.33 0.33 88 1011.2
20260507181015 11 0.0 3.2 0.15 0.33 0.33 90 1011.3
20260507180015 11 0.0 3.2 0.18 0.33 0.33 89 1011.3
20260507175015 11 0.0 1.6 0.18 0.33 0.33 89 1011.5
20260507174015 12 0.0 3.2 0.08 0.23 0.23 86 1011.7
20260507173016 12 0 1.6 4.8 0.03 0.18 0.18 84 1011.7
20260507172015 12 0 1.6 3.2 0.03 0.18 0.18 85 1011.4
20260507171035 12 0.0 3.2 0.03 0.18 0.18 86 1011.7
20260507170015 12 0.0 3.2 0.00 0.15 0.15 84 1011.9
20260507165016 13 0 3.2 12.9 0.00 0.15 0.15 84 1011.9
20260507164015 13 0.0 1.6 0.00 0.15 0.15 88 1011.7
20260507163015 12 0.0 4.8 0.00 0.15 0.15 86 1011.9
20260507162015 13 0.0 4.8 0.00 0.15 0.15 90 1012.1
20260507161015 12 0.0 3.2 0.00 0.15 0.15 90 1012.2
20260507160015 12 0.0 1.6 0.00 0.15 0.15 90 1012.4
20260507155015 12 0.0 1.6 0.00 0.15 0.15 91 1012.5
20260507154015 12 0 1.6 4.8 0.00 0.15 0.15 90 1012.5
20260507153015 12 0 1.6 3.2 0.00 0.15 0.15 91 1012.4
20260507152015 12 0.0 1.6 0.00 0.15 0.15 92 1012.5
20260507151015 12 0.0 1.6 0.03 0.15 0.15 92 1012.3
20260507150015 12 0 1.6 3.2 0.05 0.15 0.15 92 1012.5
20260507145015 12 0.0 0.0 0.05 0.15 0.15 92 1012.3
20260507144015 12 0.0 3.2 0.08 0.15 0.15 92 1012.2
20260507143015 12 0 1.6 4.8 0.10 0.15 0.15 92 1012.4
20260507142035 12 0.0 0.0 0.10 0.15 0.15 92 1012.4
20260507141015 12 0.0 0.0 0.08 0.13 0.13 92 1012.5
20260507140015 12 0.0 1.6 0.05 0.10 0.10 92 1012.6
20260507135015 12 0.0 1.6 0.05 0.10 0.10 92 1012.6
20260507134015 12 0.0 1.6 0.03 0.08 0.08 91 1012.7
20260507133015 12 0.0 3.2 0.00 0.05 0.05 91 1012.4
20260507132017 12 0.0 3.2 0.03 0.08 0.05 91 1012.5
20260507131017 12 0.0 0.0 0.03 0.08 0.05 92 1012.4
20260507130017 12 0.0 3.2 0.03 0.10 0.05 91 1012.7
20260507125037 12 0.0 0.0 0.03 0.13 0.05 90 1012.4
20260507124017 12 0.0 0.0 0.03 0.13 0.05 90 1012.3
20260507123016 12 0.0 0.0 0.03 0.13 0.05 91 1012.4
20260507122016 12 0.0 0.0 0.00 0.10 0.03 90 1012.3
20260507121017 12 0.0 0.0 0.00 0.10 0.03 90 1012.2
20260507120036 12 0.0 1.6 0.00 0.10 0.03 89 1012.3
20260507115017 12 0.0 1.6 0.00 0.10 0.03 89 1012.1
20260507114017 12 0.0 3.2 0.00 0.10 0.03 89 1011.9
20260507113037 12 0.0 0.0 0.00 0.10 0.03 89 1011.9
20260507112036 12 0.0 1.6 0.03 0.10 0.03 89 1011.9
20260507111016 12 0.0 3.2 0.03 0.10 0.03 89 1011.6
20260507110017 12 0.0 1.6 0.03 0.10 0.03 88 1011.2
20260507105016 12 0.0 1.6 0.03 0.10 0.03 88 1011.2
20260507104017 13 0.0 3.2 0.03 0.10 0.03 88 1011.3
20260507103017 13 0 1.6 3.2 0.03 0.10 0.03 87 1011.4
20260507102016 13 0.0 3.2 0.00 0.08 0.00 88 1011.0
20260507101016 13 0.0 1.6 0.00 0.08 0.00 87 1011.3
20260507100016 13 0 1.6 4.8 0.00 0.08 0.00 88 1011.2
20260507095036 13 0 1.6 6.4 0.00 0.08 0.00 89 1010.6
20260507094016 14 0 1.6 3.2 0.00 0.08 0.00 90 1010.4
20260507093016 14 0 1.6 6.4 0.00 0.08 0.00 90 1011.1
20260507092016 14 0.0 6.4 0.00 0.08 0.00 90 1011.1
20260507091016 14 0 1.6 6.4 0.00 0.08 0.00 90 1010.6
20260507090016 14 0.0 3.2 0.00 0.08 0.00 91 1010.8
20260507085016 15 0 1.6 4.8 0.00 0.08 0.00 90 1010.4
20260507084016 15 0.0 3.2 0.00 0.08 0.00 91 1010.5
20260507083016 15 0.0 3.2 0.00 0.08 0.00 90 1010.6
20260507082016 15 0 1.6 4.8 0.00 0.08 0.00 90 1010.6
20260507081016 16 0.0 1.6 0.00 0.08 0.00 91 1010.1
20260507080016 17 0 1.6 6.4 0.00 0.08 0.00 93 1010.2
20260507075016 17 0.0 0.0 0.00 0.08 0.00 94 1009.9
20260507074016 17 0.0 0.0 0.00 0.08 0.00 94 1010.3
20260507073016 17 0.0 0.0 0.00 0.08 0.00 94 1010.0
20260507072016 17 0.0 0.0 0.00 0.08 0.00 93 1009.9
20260507071016 17 0.0 0.0 0.00 0.08 0.00 93 1009.8
20260507070016 17 0.0 0.0 0.00 0.08 0.00 93 1009.3
20260507065016 17 0.0 0.0 0.00 0.08 0.00 92 1009.0
20260507064016 18 0.0 0.0 0.00 0.08 0.00 92 1009.5
20260507063016 18 0.0 0.0 0.00 0.08 0.00 93 1009.6
20260507062016 18 0.0 1.6 0.00 0.08 0.00 93 1009.7
20260507061016 18 0 3.2 4.8 0.00 0.08 0.00 93 1009.8
20260507060016 17 0.0 1.6 0.00 0.08 0.00 93 1009.3
20260507055016 17 0.0 3.2 0.00 0.08 0.00 93 1009.1
20260507054016 17 0.0 3.2 0.00 0.08 0.00 93 1008.6
20260507053016 17 0.0 0.0 0.00 0.08 0.00 93 1008.9
20260507052015 17 0.0 3.2 0.00 0.08 0.00 93 1008.8
20260507051036 17 0 1.6 6.4 0.00 0.08 0.00 93 1008.9
20260507050016 17 0.0 0.0 0.00 0.08 0.00 92 1008.7
20260507045015 17 0.0 1.6 0.00 0.08 0.00 92 1009.2
20260507044016 17 0 1.6 4.8 0.00 0.08 0.00 92 1009.3
20260507043036 17 0.0 3.2 0.00 0.08 0.00 92 1009.7
20260507042016 17 0.0 3.2 0.00 0.08 0.00 91 1009.9
20260507041016 17 0.0 1.6 0.00 0.08 0.00 91 1010.2
20260507040015 17 0.0 0.0 0.00 0.08 0.08 90 1010.3
20260507035015 18 0.0 0.0 0.00 0.08 0.08 89 1009.8
20260507034035 18 0.0 0.0 0.00 0.08 0.08 88 1009.9
20260507033036 18 0.0 0.0 0.00 0.08 0.08 89 1010.0
20260507032015 18 0.0 0.0 0.00 0.08 0.08 89 1010.4
20260507031015 18 0.0 0.0 0.00 0.08 0.08 88 1010.1
20260507030015 18 0.0 0.0 0.00 0.08 0.08 88 1010.0
20260507025017 18 0.0 0.0 0.00 0.08 0.08 88 1010.1
20260507024017 18 0.0 1.6 0.00 0.08 0.08 89 1009.7
20260507023017 18 0.0 1.6 0.00 0.08 0.08 88 1009.3
20260507022017 18 0.0 1.6 0.00 0.08 0.08 88 1009.0
20260507021016 18 0.0 0.0 0.00 0.08 0.08 87 1009.1
20260507020017 18 0.0 0.0 0.00 0.08 0.08 87 1009.3
20260507015016 18 0.0 1.6 0.00 0.08 0.08 86 1009.7
20260507014036 18 0.0 0.0 0.00 0.08 0.08 85 1009.6
20260507013017 18 0.0 0.0 0.00 0.08 0.08 85 1009.7
20260507012040 19 0.0 1.6 0.00 0.08 0.08 84 1009.8
20260507011016 19 0.0 0.0 0.00 0.08 0.08 83 1009.9
20260507010016 20 0.0 0.0 0.00 0.08 0.08 82 1009.8
20260507005017 20 0.0 1.6 0.00 0.08 0.08 82 1009.7
20260507004016 20 0.0 1.6 0.00 0.08 0.08 81 1009.7
20260507003016 20 0.0 1.6 0.00 0.08 0.08 80 1009.5
20260507002016 20 0.0 1.6 0.00 0.08 0.08 80 1009.6
20260507001016 20 0 1.6 3.2 0.00 0.08 0.08 80 1009.8
20260507000016 21 0 1.6 8.0 0.00 0.08 0.08 78 1009.5
20260506235016 21 0 1.6 4.8 0.00 0.08 0.08 79 1009.4
20260506234016 21 0.0 1.6 0.00 0.08 0.08 80 1009.6
20260506233016 21 0.0 3.2 0.00 0.08 0.08 79 1009.6
20260506232016 21 0 1.6 4.8 0.00 0.08 0.08 78 1009.5
20260506231016 21 0 1.6 4.8 0.00 0.08 0.08 78 1009.2
20260506230036 21 0 1.6 8.0 0.00 0.08 0.08 78 1009.5
20260506225036 21 0 3.2 9.7 0.00 0.08 0.08 77 1009.2
20260506224036 21 0 3.2 9.7 0.00 0.08 0.08 77 1009.1
20260506223016 21 0 3.2 12.9 0.00 0.08 0.08 77 1009.2
20260506222016 21 0 3.2 9.7 0.00 0.08 0.08 77 1009.2